Flag for Saudi Arabia Weather past 2 weeks in Riyadh, Saudi Arabia

Now
97 °F

Sunny.


Feels Like: 95 °F
Forecast: 82 / 108 °F
Wind: 3 mph from East

Location: Riyadh Airport

Current Time: Sep 2, 2014 at 10:35:49 AM

Latest Report: Sep 2, 2014 at 9:00 AM


Visibility: 10 mi

Pressure: 29.74 "Hg

Humidity: 25%

Dew point: 55 °F

Location of RiyadhLocation

Historic Weather in Riyadh — Graph

°F

Riyadh temperature yesterday

Maximum temperature yesterday: 109 °F (at 3:00 PM)
Minimum temperature yesterday: 88 °F (at 5:00 AM)
Average temperature yesterday: 100 °F

Past Weeks' High & Low Weather Summary

 TemperatureHumidityPressure
High113 °F (Aug 18, 2:00 PM)62% (Aug 25, 6:00 AM)29.89 "Hg (Aug 25, 6:00 AM)
Low86 °F (Aug 31, 6:00 AM)8% (Aug 29, 3:00 PM)29.65 "Hg (Aug 28, 4:00 PM)
Average101 °F17%29.76 "Hg
* Reported Aug 18 9:00 AM — Sep 2 9:00 AM, Riyadh, Weather by CustomWeather, © 2014

Note: Actual official high and low records may vary slightly from our data, if they occured in-between our weather recording intervals... More about our weather records

Advertising

Riyadh weather history for previous 24 hours

 ConditionsComfort  
Time TempWeatherWind HumidityBarometerVisibility
9:00 AM
Sep 2
97 °FSunny.3 mph25%29.74 "Hg10 mi
8:00 AM91 °FSunny.No wind28%29.74 "Hg10 mi
7:00 AM90 °FSunny.No wind27%29.71 "Hg10 mi
6:00 AM86 °FSunny.5 mph29%29.71 "Hg10 mi
5:00 AM88 °FClear.5 mph27%29.71 "Hg10 mi
12:00 AM95 °FClear.9 mph12%29.68 "Hg10 mi
10:00 PM
Sep 1
97 °FClear.9 mph12%29.71 "Hg5 mi
9:00 PM99 °FClear.8 mph11%29.68 "Hg5 mi
8:00 PM100 °FClear.12 mph11%29.68 "Hg5 mi
7:00 PM102 °FClear.17 mph11%29.65 "Hg5 mi
6:00 PM104 °FSunny.18 mph12%29.68 "Hg4 mi
5:00 PM106 °FSunny.16 mph10%29.65 "Hg4 mi
4:00 PM108 °FSunny.16 mph10%29.65 "Hg4 mi
3:00 PM109 °FSunny.14 mph10%29.65 "Hg10 mi
2:00 PM108 °FSunny.12 mph10%29.65 "Hg10 mi
1:00 PM108 °FSunny.12 mph10%29.68 "Hg10 mi
12:00 PM104 °FSunny.7 mph11%29.71 "Hg10 mi
11:00 AM104 °FSunny.6 mph10%29.74 "Hg10 mi
10:00 AM100 °FSunny.9 mph10%29.74 "Hg10 mi
Weather by CustomWeather, © 2014

See weather overviewHow to use our weather pages